Temp
45 43 43 43 43 43 43 44 45 46 50 50 50 50 50 50 51 49 49 49 49 49 49 49 49 50 48 47 47 47 47 47 44 46 51 52 52 52 55 57 58 57 58
43 43 43 42 42 42 43 44 46 45 51 50 50 50 50 49 50 49 48 50 49 49 49 49 49 51 48 48 48 47 47 48 46 45 48 50 51 53 55 54 56 56 56
44 43 42 42 42 42 43 44 45 45 49 50 50 49 49 48 49 49 49 49 49 50 50 49 49 50 49 48 48 47 48 49 49 47 47 50 52 54 54 54 54 54 56
43 42 42 42 42 42 43 44 45 45 44 48 49 49 49 48 48 47 49 49 49 50 50 49 50 51 51 50 49 48 48 48 49 49 50 51 52 54 54 52 51 52 52
42 42 42 43 43 44 45 44 44 43 43 44 47 48 48 48 49 47 48 49 49 49 49 49 50 53 54 53 51 49 49 49 49 49 49 51 52 52 51 52 50 51 50
42 43 43 44 44 44 45 44 41 40 40 41 43 45 47 47 48 48 48 47 48 48 47 48 49 50 50 53 53 53 51 48 48 48 49 49 50 52 52 51 50 49 47
42 44 44 44 45 45 44 42 39 38 38 39 42 42 42 44 47 46 47 47 47 47 47 47 47 48 48 49 51 52 51 51 50 49 48 48 48 50 51 50 49 49 48
43 43 44 44 45 44 42 39 38 37 37 38 40 40 39 41 45 44 45 46 47 47 47 46 45 46 47 47 48 49 49 50 50 50 49 49 49 50 51 51 50 49 50
43 43 44 44 44 43 41 38 37 36 37 37 38 38 38 39 44 44 43 43 46 46 47 47 46 45 45 45 47 47 48 49 51 50 49 48 47 47 49 51 49 48 47
43 44 45 45 43 42 40 39 37 36 37 38 38 37 42 37 42 43 43 43 45 46 47 46 47 45 44 44 46 46 44 46 48 49 50 50 49 49 50 50 49 48 47
44 45 45 44 43 41 39 38 38 37 37 36 36 36 37 39 38 43 43 44 42 42 44 44 46 44 43 43 44 45 43 47 48 49 49 50 51 50 49 50 49 48 46
44 44 44 44 45 43 39 37 37 36 36 35 35 37 38 40 45 44 43 43 45 45 44 45 45 42 42 42 44 42 43 46 47 47 47 46 46 47 48 48 48 48 48
43 42 42 44 45 44 39 37 36 35 35 35 34 34 39 44 45 44 44 43 45 45 45 45 43 42 42 44 43 44 44 45 44 43 43 44 45 47 48 47 48 48 47
42 42 41 42 43 43 41 39 36 35 35 35 34 33 41 43 43 42 44 44 44 45 45 45 44 44 43 44 43 44 44 43 43 42 42 44 46 46 45 46 45 46 45
41 42 41 41 41 42 41 39 38 37 37 35 34 33 39 40 41 40 40 42 42 42 43 44 42 42 41 40 41 42 42 42 41 42 41 41 42 44 44 45 44 44 44
41 40 39 39 40 42 40 40 41 40 40 39 39 37 42 42 40 40 40 40 40 39 37 35 34 35 39 39 39 39 40 40 40 41 41 40 40 41 42 44 44 43 42
40 40 39 40 40 40 41 40 40 41 42 41 40 40 39 40 39 40 40 40 40 40 40 40 39 40 38 39 38 38 38 39 39 38 38 39 40 41 41 42 42 42 42
42 43 38 38 39 40 41 40 39 39 37 39 41 39 40 40 40 40 40 41 43 43 42 40 40 39 38 38 37 37 37 37 37 37 37 38 39 39 40 40 41 40 40
43 41 40 38 39 40 39 39 39 39 38 37 37 40 40 41 41 40 41 43 41 41 41 40 39 38 38 37 37 37 37 36 36 36 36 37 38 39 39 40 40 37 37
42 42 41 39 40 40 39 39 37 37 37 37 36 36 41 42 42 43 44 43 41 40 38 38 38 38 37 37 36 36 36 36 36 36 36 36 38 39 39 39 40 40 40
41 41 36 40 40 39 38 38 37 37 36 36 36 38 35 41 42 42 42 40 38 38 36 38 36 37 37 36 36 36 36 35 36 35 35 36 37 37 39 40 40 41 41
41 40 41 40 40 39 38 38 38 38 37 37 37 41 37 44 43 42 40 39 39 39 38 37 37 36 36 36 36 35 34 34 35 35 35 35 37 38 39 39 40 40 41
41 41 40 39 40 38 39 38 38 38 37 38 42 44 44 43 42 40 39 38 38 38 38 37 36 36 37 36 36 36 34 34 35 35 34 35 36 38 39 39 40 40 40
41 40 39 39 39 38 38 38 38 38 40 44 42 44 43 41 40 39 38 38 38 38 37 37 37 36 37 37 36 36 36 35 35 35 36 36 37 38 40 40 40 41 42
40 39 38 38 39 38 38 38 38 43 43 41 41 43 42 40 39 38 38 38 37 37 37 37 37 37 37 36 36 35 34 32 33 33 36 38 39 40 40 40 41 41 42
40 40 39 38 38 38 38 38 40 42 40 40 41 42 41 39 38 37 37 37 36 36 37 37 37 37 37 36 35 33 33 33 34 33 35 38 40 40 41 41 43 42 42
MSLP
1021.97 1022.24 1022.28 1021.87 1021.55 1021.50 1020.95 1020.20 1019.67 1019.00 1018.62 1018.19 1017.59 1016.92 1016.27 1015.49 1014.75 1014.05 1013.34 1012.55 1011.75 1011.00 1010.24 1009.54 1008.81 1008.19 1007.99 1007.84 1007.84 1007.83 1007.59 1007.46 1006.91 1005.45 1005.02 1004.26 1003.70 1002.89 1002.14 1001.62 1001.04 1000.86 1000.75
1022.13 1022.46 1022.45 1021.95 1021.49 1021.15 1020.53 1019.93 1019.42 1018.97 1018.55 1018.09 1017.56 1016.98 1016.38 1015.68 1014.88 1014.18 1013.38 1012.51 1011.69 1010.88 1010.15 1009.34 1008.65 1007.91 1007.60 1007.47 1007.50 1007.39 1007.18 1006.97 1006.62 1005.64 1004.67 1003.96 1003.49 1002.62 1002.03 1001.93 1001.67 1001.34 1001.50
1022.19 1022.39 1022.41 1021.90 1021.42 1020.82 1020.31 1019.85 1019.36 1018.91 1018.49 1017.89 1017.47 1017.01 1016.55 1015.87 1015.09 1014.31 1013.56 1012.74 1011.90 1011.13 1010.24 1009.45 1008.67 1007.91 1007.29 1006.95 1006.92 1006.84 1006.64 1006.42 1006.02 1005.35 1004.34 1003.79 1003.15 1002.42 1002.33 1002.14 1002.09 1002.14 1002.29
1022.33 1022.42 1022.22 1021.58 1021.38 1020.92 1020.41 1019.81 1019.34 1018.90 1018.47 1017.85 1017.39 1016.96 1016.60 1015.99 1015.30 1014.54 1013.71 1012.88 1012.10 1011.34 1010.55 1009.77 1008.86 1008.01 1007.30 1006.48 1006.42 1006.35 1006.21 1005.94 1005.42 1004.73 1003.94 1003.19 1002.80 1002.48 1002.50 1002.69 1002.94 1002.99 1003.28
1022.15 1022.26 1022.02 1021.74 1021.29 1020.92 1020.31 1019.70 1019.25 1018.78 1018.36 1017.91 1017.30 1016.94 1016.51 1016.03 1015.47 1014.79 1013.91 1013.09 1012.33 1011.59 1010.89 1010.17 1009.37 1008.50 1007.64 1007.02 1006.39 1006.16 1005.94 1005.59 1005.11 1004.32 1003.55 1003.07 1002.77 1002.56 1002.63 1002.86 1003.15 1003.45 1003.73
1022.36 1022.14 1021.80 1021.71 1021.30 1020.89 1020.16 1019.72 1019.26 1018.87 1018.40 1017.93 1017.51 1017.18 1016.67 1016.14 1015.55 1014.82 1014.13 1013.31 1012.63 1011.98 1011.29 1010.55 1009.83 1009.09 1008.40 1007.66 1007.04 1006.55 1006.20 1005.76 1005.21 1004.66 1004.06 1003.48 1003.17 1002.80 1002.76 1002.89 1003.18 1003.56 1003.79
1022.28 1022.08 1021.89 1021.60 1021.25 1020.75 1020.26 1019.87 1019.60 1019.23 1018.74 1018.33 1017.85 1017.51 1017.06 1016.38 1015.75 1015.04 1014.19 1013.51 1012.94 1012.39 1011.83 1011.13 1010.42 1009.71 1008.97 1008.30 1007.57 1007.06 1006.52 1006.15 1005.75 1005.31 1004.83 1004.37 1003.87 1003.49 1003.18 1003.18 1003.27 1003.48 1003.75
1022.62 1022.05 1021.63 1021.39 1021.01 1020.66 1020.45 1020.24 1019.92 1019.59 1019.26 1018.84 1018.27 1017.89 1017.39 1016.68 1015.99 1015.23 1014.30 1013.61 1013.06 1012.54 1012.10 1011.66 1011.19 1010.46 1009.65 1008.85 1008.07 1007.42 1006.98 1006.51 1006.07 1005.78 1005.42 1005.00 1004.53 1003.95 1003.55 1003.36 1003.36 1003.61 1003.84
1022.48 1021.98 1021.62 1021.07 1020.80 1020.70 1020.71 1020.60 1020.30 1019.98 1019.57 1019.20 1018.74 1018.23 1017.72 1016.98 1016.19 1015.48 1014.41 1013.86 1013.28 1012.79 1012.40 1012.07 1011.64 1011.13 1010.40 1009.38 1008.73 1008.16 1007.55 1006.99 1006.36 1005.99 1005.62 1005.29 1004.79 1004.32 1003.91 1003.51 1003.67 1003.67 1004.00
1022.31 1022.11 1021.38 1020.78 1020.57 1020.73 1020.72 1020.65 1020.49 1020.23 1019.98 1019.45 1018.97 1018.47 1017.91 1017.29 1016.43 1015.69 1014.95 1014.25 1013.71 1013.24 1012.70 1012.40 1012.10 1011.68 1010.94 1010.14 1009.58 1009.11 1008.39 1007.86 1007.21 1006.49 1005.96 1005.51 1005.17 1004.80 1004.58 1004.37 1004.09 1004.04 1004.15
1022.34 1021.98 1021.12 1020.49 1020.41 1020.51 1020.62 1020.70 1020.58 1020.37 1020.07 1019.83 1019.40 1018.71 1018.05 1017.44 1016.69 1016.06 1015.35 1014.69 1014.26 1013.71 1013.29 1012.92 1012.59 1012.08 1011.37 1010.79 1010.26 1009.84 1009.51 1008.58 1007.75 1007.18 1006.75 1006.30 1005.88 1005.57 1005.19 1004.95 1004.71 1004.60 1004.77
1022.37 1021.69 1021.16 1020.48 1020.32 1020.39 1020.69 1020.75 1020.70 1020.56 1020.52 1020.29 1019.85 1019.18 1018.34 1017.55 1016.94 1016.29 1015.68 1015.16 1014.58 1014.09 1013.80 1013.48 1013.07 1012.52 1011.81 1011.26 1010.71 1010.26 1009.63 1008.98 1008.38 1007.93 1007.52 1007.19 1006.84 1006.53 1006.20 1005.88 1005.60 1005.33 1005.18
1022.14 1021.71 1021.32 1020.59 1020.33 1020.33 1020.67 1020.76 1020.77 1020.66 1020.59 1020.49 1020.20 1019.69 1018.81 1017.89 1017.26 1016.61 1015.93 1015.47 1014.94 1014.47 1014.16 1013.82 1013.35 1012.73 1012.21 1011.71 1011.23 1010.77 1010.17 1009.59 1009.16 1008.69 1008.42 1008.07 1007.73 1007.24 1006.65 1006.34 1006.15 1005.95 1005.84
1021.96 1021.86 1021.39 1020.90 1020.56 1020.39 1020.55 1020.52 1020.55 1020.45 1020.43 1020.36 1020.21 1019.95 1019.06 1018.26 1017.64 1017.14 1016.43 1015.74 1015.14 1014.68 1014.31 1013.92 1013.47 1013.04 1012.62 1012.24 1011.72 1011.24 1010.77 1010.38 1009.95 1009.58 1009.15 1008.64 1008.08 1007.58 1007.18 1006.83 1006.54 1006.34 1006.21
1022.13 1021.97 1021.48 1021.14 1020.81 1020.50 1020.40 1020.25 1020.15 1019.91 1019.98 1019.94 1019.93 1019.83 1019.22 1018.50 1017.97 1017.43 1016.80 1016.09 1015.53 1015.05 1014.48 1013.96 1013.46 1012.92 1012.66 1012.39 1012.06 1011.73 1011.38 1010.92 1010.47 1010.07 1009.64 1009.16 1008.66 1008.19 1007.70 1007.23 1006.95 1006.73 1006.61
1022.35 1021.97 1021.69 1021.42 1020.96 1020.59 1020.47 1020.04 1019.59 1019.42 1019.43 1019.43 1019.39 1019.31 1018.71 1018.41 1017.85 1017.29 1016.73 1016.11 1015.47 1015.03 1014.69 1014.33 1013.92 1013.55 1013.17 1012.91 1012.54 1012.13 1011.76 1011.39 1011.00 1010.50 1010.11 1009.71 1009.22 1008.76 1008.30 1007.76 1007.43 1007.24 1007.13
1022.13 1021.97 1021.81 1021.56 1021.14 1020.75 1020.49 1020.24 1019.99 1019.29 1019.14 1019.09 1018.99 1018.75 1018.51 1018.18 1017.71 1017.22 1016.64 1016.05 1015.42 1015.06 1014.79 1014.33 1013.94 1013.57 1013.38 1013.17 1012.84 1012.51 1012.13 1011.76 1011.49 1011.04 1010.57 1010.12 1009.66 1009.16 1008.65 1008.19 1007.87 1007.64 1007.48
1021.85 1021.91 1022.00 1021.70 1021.27 1020.86 1020.64 1020.32 1019.98 1019.86 1019.84 1019.54 1019.08 1018.91 1018.52 1018.05 1017.59 1017.04 1016.49 1015.89 1015.38 1014.90 1014.68 1014.29 1013.87 1013.72 1013.60 1013.30 1013.11 1012.67 1012.41 1012.03 1011.67 1011.32 1010.85 1010.43 1010.00 1009.57 1009.07 1008.64 1008.24 1008.00 1007.77
1022.03 1022.07 1021.80 1021.57 1021.18 1020.83 1020.69 1020.38 1020.19 1020.19 1020.14 1019.98 1019.60 1019.01 1018.54 1018.02 1017.53 1016.94 1016.44 1016.00 1015.46 1014.93 1014.58 1014.36 1014.23 1013.99 1013.69 1013.56 1013.33 1012.94 1012.56 1012.23 1011.87 1011.55 1011.13 1010.70 1010.27 1009.83 1009.35 1008.95 1008.54 1008.26 1008.03
1022.06 1021.97 1021.80 1021.63 1021.38 1021.06 1020.82 1020.66 1020.65 1020.62 1020.51 1020.30 1019.97 1019.61 1018.89 1018.17 1017.61 1016.95 1016.43 1015.99 1015.64 1015.26 1015.17 1014.80 1014.48 1014.28 1013.92 1013.57 1013.36 1013.02 1012.67 1012.35 1011.99 1011.69 1011.35 1010.96 1010.45 1009.97 1009.50 1009.06 1008.69 1008.36 1008.11
1022.29 1022.12 1021.99 1021.81 1021.65 1021.42 1021.21 1021.05 1021.10 1021.02 1020.84 1020.57 1020.19 1019.58 1018.99 1018.36 1017.77 1017.14 1016.65 1016.35 1016.24 1015.60 1015.53 1014.99 1014.71 1014.42 1014.07 1013.68 1013.36 1013.03 1012.69 1012.37 1012.03 1011.74 1011.45 1011.03 1010.54 1010.01 1009.54 1009.14 1008.76 1008.34 1007.98
1022.36 1022.38 1022.29 1022.29 1021.95 1021.81 1021.75 1021.55 1021.46 1021.30 1021.03 1020.66 1020.21 1019.49 1018.79 1018.36 1017.90 1017.44 1017.34 1016.91 1016.64 1016.11 1015.67 1015.33 1014.91 1014.54 1014.13 1013.71 1013.37 1013.07 1012.74 1012.42 1012.06 1011.75 1011.44 1011.05 1010.50 1009.96 1009.48 1009.07 1008.59 1008.18 1007.73
1022.58 1022.72 1022.76 1022.62 1022.36 1022.21 1022.09 1021.89 1021.72 1021.46 1021.11 1020.63 1020.03 1019.45 1019.00 1018.66 1018.32 1018.14 1017.85 1017.39 1016.82 1016.32 1015.84 1015.41 1014.98 1014.50 1014.04 1013.62 1013.33 1013.08 1012.81 1012.50 1012.14 1011.86 1011.48 1011.09 1010.50 1009.87 1009.42 1008.98 1008.61 1008.23 1007.75
1023.00 1023.14 1023.14 1023.00 1022.81 1022.68 1022.46 1022.20 1021.93 1021.55 1021.15 1020.73 1020.26 1019.73 1019.47 1019.26 1018.92 1018.68 1018.19 1017.67 1017.08 1016.49 1016.01 1015.54 1015.05 1014.55 1013.99 1013.56 1013.24 1012.91 1012.59 1012.33 1012.07 1011.71 1011.33 1010.95 1010.41 1009.73 1009.30 1008.82 1008.47 1008.01 1007.51
1023.43 1023.49 1023.40 1023.31 1023.11 1022.95 1022.70 1022.43 1022.13 1021.71 1021.37 1020.97 1020.58 1020.11 1019.94 1019.66 1019.42 1019.07 1018.57 1018.00 1017.39 1016.74 1016.19 1015.68 1015.13 1014.57 1014.01 1013.58 1013.20 1012.89 1012.40 1012.10 1011.73 1011.45 1011.08 1010.69 1010.15 1009.53 1009.07 1008.52 1008.09 1007.70 1007.11
1023.84 1023.77 1023.65 1023.44 1023.30 1023.15 1023.03 1022.75 1022.44 1022.14 1021.85 1021.39 1020.97 1020.55 1020.37 1020.10 1019.86 1019.43 1018.90 1018.32 1017.73 1017.09 1016.48 1015.86 1015.29 1014.69 1014.13 1013.70 1013.25 1012.78 1012.23 1011.82 1011.47 1011.09 1010.80 1010.36 1009.87 1009.30 1008.79 1008.37 1007.86 1007.66 1007.30
Wind_Speed
5 4 4 5 5 6 6 6 6 6 8 9 10 11 12 12 12 11 11 11 12 11 10 9 11 9 5 4 5 5 6 5 7 10 7 9 11 11 9 4 5 5 6
2 3 5 6 5 6 6 7 7 7 8 8 9 10 11 12 12 11 12 12 12 11 12 10 10 7 6 5 4 6 6 5 5 12 10 9 8 9 4 3 3 7 7
4 5 6 6 6 7 7 7 7 7 9 9 7 8 10 11 11 11 10 11 12 12 12 11 10 9 7 4 5 5 5 5 6 7 10 5 5 5 2 3 5 5 5
4 5 6 7 7 7 7 7 6 7 7 8 6 6 8 9 10 11 10 10 11 11 12 12 11 10 11 6 5 5 5 5 7 8 8 5 4 3 1 1 3 4 3
5 5 7 7 7 7 7 7 6 7 6 6 5 5 7 7 8 11 10 9 9 11 11 11 11 18 20 17 4 5 6 6 6 6 6 2 2 0 0 1 2 2 1
5 6 6 6 6 6 6 7 7 7 7 6 6 6 7 6 16 20 14 8 9 9 11 12 11 16 16 18 18 15 12 6 6 4 4 4 6 2 0 2 2 2 2
5 5 6 6 6 6 6 7 8 8 6 6 6 7 8 8 16 19 19 6 7 8 9 10 10 9 13 10 10 12 12 15 13 6 5 5 4 4 4 1 2 1 2
5 6 6 6 6 6 7 7 7 5 7 5 6 7 6 7 16 18 17 7 6 6 7 9 9 11 13 12 9 8 7 7 7 6 7 7 5 5 3 1 2 3 3
6 7 7 5 5 4 6 7 5 5 6 5 5 7 7 8 16 18 11 6 6 6 6 7 10 10 16 17 10 10 8 9 7 11 9 10 11 14 9 2 3 2 2
6 7 7 5 4 2 3 5 3 3 4 5 6 6 10 8 14 17 15 5 7 6 7 7 14 12 16 17 10 9 9 8 8 7 7 8 8 9 12 7 3 3 2
6 7 6 5 3 1 2 2 4 5 6 7 7 7 7 7 9 15 15 6 5 4 5 7 7 15 13 16 13 10 8 8 10 7 6 7 7 7 6 6 6 4 3
6 6 6 6 3 2 1 2 4 5 6 6 6 7 6 8 11 14 13 12 13 6 6 6 7 13 13 14 12 15 14 10 7 7 6 7 6 7 5 4 5 5 5
5 7 6 6 4 1 2 1 0 3 3 4 4 5 6 6 7 15 13 13 12 6 6 8 10 11 11 9 14 15 11 8 7 7 6 6 6 5 5 3 3 4 5
5 7 6 6 6 3 2 3 2 2 2 3 4 4 6 5 6 6 7 7 10 8 9 6 8 8 8 9 9 9 7 7 7 6 6 6 5 6 5 4 3 2 2
5 6 6 4 5 4 3 4 4 5 4 2 3 3 4 5 6 7 5 5 5 6 7 4 5 7 9 8 7 7 6 7 7 6 6 6 5 5 5 4 3 3 1
5 5 5 5 5 3 3 5 7 9 7 8 9 6 3 6 8 9 8 10 11 10 4 3 4 4 6 9 8 7 5 8 7 6 6 5 5 5 5 4 3 3 2
3 5 5 5 4 4 3 3 4 4 5 8 8 8 2 7 10 9 9 11 12 8 3 5 5 5 4 6 5 6 6 6 6 6 6 6 6 5 6 4 4 2 2
4 5 4 5 4 4 4 4 2 0 2 4 6 7 8 8 10 12 12 10 7 6 6 6 6 5 5 4 6 4 5 5 5 5 6 6 6 5 5 5 4 3 3
4 4 5 4 4 3 2 3 2 3 3 3 4 6 8 11 12 13 11 6 8 8 6 7 5 5 5 3 5 5 5 4 4 5 5 5 6 5 5 4 4 4 3
4 7 4 3 4 5 3 3 3 3 4 4 4 4 6 6 6 8 8 8 7 6 7 8 6 6 5 4 5 5 4 4 4 4 5 5 5 5 5 5 4 4 3
2 3 5 3 4 3 3 4 3 3 3 4 4 4 7 6 7 8 8 8 7 6 7 7 5 6 5 6 5 5 4 4 4 4 4 5 5 5 5 5 4 4 3
3 3 4 4 3 4 4 4 3 3 3 4 4 4 9 6 8 8 9 7 8 7 5 7 6 5 5 5 5 5 5 5 4 4 5 5 6 6 5 5 4 4 4
4 4 4 3 3 4 4 3 3 4 4 5 5 6 7 8 8 8 8 8 8 7 6 6 6 6 6 5 4 4 4 4 4 4 5 5 6 5 5 5 4 4 3
5 4 3 3 4 4 4 4 4 5 5 5 6 7 7 8 8 9 8 8 7 7 6 7 6 8 8 6 4 4 4 4 4 4 6 5 6 7 5 5 4 5 4
5 4 3 3 3 3 3 4 4 5 5 5 6 6 7 7 8 8 8 8 8 8 9 8 7 10 10 10 8 8 7 7 6 6 5 6 7 8 6 5 5 4 4
4 4 2 2 3 3 4 4 4 5 5 5 6 6 7 7 7 7 8 8 8 8 10 8 10 14 12 9 10 11 8 7 6 6 4 4 5 6 5 5 6 3 5
Wind_Direction
44 13 342 331 328 313 305 306 307 313 320 324 329 332 332 333 332 327 322 316 314 315 312 305 295 281 266 250 243 251 253 246 268 289 278 293 297 291 305 324 16 25 35
17 347 322 313 315 311 317 317 313 308 315 312 322 337 336 332 333 334 333 332 335 332 330 325 322 321 274 253 245 254 255 252 261 279 286 293 290 293 298 8 27 48 53
3 343 318 323 326 330 326 317 315 314 315 315 314 342 334 330 333 332 336 340 341 339 338 335 329 324 314 261 240 249 253 257 257 263 281 275 271 273 90 10 33 40 46
358 340 328 338 334 319 307 313 324 314 312 313 315 321 329 326 335 335 335 344 349 347 348 347 339 351 347 309 256 252 258 266 271 275 281 271 251 278 96 116 62 47 9
4 347 341 325 319 311 318 325 317 324 316 305 317 329 328 331 342 344 333 331 341 344 350 353 353 3 10 18 346 302 290 288 292 294 303 271 168 299 161 135 100 114 39
2 347 337 326 320 320 336 337 340 329 332 343 1 350 336 331 340 345 350 326 335 347 351 349 353 4 356 2 12 21 25 357 330 319 331 348 3 358 127 161 137 168 139
345 329 329 325 322 338 346 350 344 337 339 356 13 2 342 333 345 344 346 336 338 348 359 360 356 359 358 345 351 4 14 11 14 359 358 2 349 336 331 21 85 95 92
323 321 323 306 324 351 355 352 345 344 349 340 349 351 340 333 344 343 341 340 348 351 1 5 359 358 357 354 352 351 351 352 360 7 9 5 356 338 3 355 120 106 86
336 322 306 309 331 358 2 350 344 348 352 349 335 349 349 333 341 348 356 351 336 344 0 3 18 5 349 360 8 3 358 8 351 9 9 9 7 19 18 33 59 98 95
338 311 299 327 357 339 357 351 333 345 336 339 346 348 343 331 339 352 2 342 357 356 2 9 9 358 357 9 16 1 5 348 346 355 2 4 7 22 27 18 8 61 80
317 299 323 343 352 184 12 359 3 9 7 359 351 334 333 337 329 349 355 2 348 338 4 1 3 355 3 11 13 13 355 329 351 359 7 7 11 13 21 17 27 43 54
305 326 332 342 339 125 102 1 10 23 14 354 348 345 331 333 344 351 355 4 3 11 10 0 356 353 3 8 12 0 359 358 2 6 11 10 1 0 354 12 18 37 45
323 343 331 345 358 55 219 234 4 12 19 344 347 336 334 341 348 349 352 358 3 8 7 358 350 360 7 10 7 4 5 9 5 10 3 354 345 329 338 353 4 44 50
344 331 334 350 347 9 282 232 202 248 305 320 334 332 328 343 350 341 350 353 359 8 357 353 352 356 8 6 7 4 4 6 5 359 348 338 339 349 348 341 348 339 34
343 326 344 339 332 349 315 242 226 242 199 241 272 250 308 333 331 310 309 351 348 337 328 337 354 9 6 3 2 360 356 358 357 353 348 345 346 343 342 337 354 341 16
325 338 332 324 325 332 326 323 239 239 274 250 254 242 292 274 310 324 329 330 325 343 342 332 329 343 354 351 349 346 351 351 350 348 345 340 342 339 336 336 348 1 15
294 323 322 325 332 339 333 323 325 330 280 284 316 326 288 265 295 304 317 320 314 332 317 325 320 326 343 336 342 340 340 344 353 346 342 338 337 336 339 340 350 350 345
356 323 315 310 311 324 343 332 289 227 2 337 339 347 332 317 303 307 316 327 329 336 326 315 327 342 341 353 336 333 338 338 345 341 333 334 333 331 336 341 344 342 330
349 314 327 324 319 327 354 359 25 73 39 351 334 339 340 325 318 315 325 335 327 322 332 343 4 342 321 357 330 329 334 333 328 339 332 332 332 330 329 327 323 329 324
339 324 340 354 352 12 13 28 70 57 22 360 342 321 323 326 330 337 338 333 344 344 2 331 2 341 343 332 333 322 330 329 332 332 332 329 325 322 319 321 320 322 323
353 350 0 17 22 3 19 52 79 40 4 351 324 306 313 324 332 335 343 348 1 350 351 340 357 336 345 337 334 326 323 321 323 329 327 320 319 319 317 314 312 310 305
48 29 20 28 8 44 41 51 46 14 352 336 316 306 316 343 344 348 355 349 356 345 347 342 340 332 327 326 325 319 320 318 319 327 319 315 314 314 316 315 315 318 315
55 34 30 23 45 39 41 25 13 357 340 326 324 332 350 351 359 353 354 345 339 341 341 339 332 327 326 323 318 311 306 305 305 308 302 310 311 310 312 307 307 310 307
56 36 48 46 51 41 28 10 353 343 333 347 346 356 0 359 356 351 346 341 337 341 343 336 330 329 330 332 319 309 298 300 298 289 296 297 298 304 305 302 303 304 292
47 38 64 73 54 34 15 7 353 353 358 351 348 1 360 1 355 349 344 341 338 343 343 337 334 334 336 335 331 329 314 309 294 288 285 287 294 304 305 302 308 310 306
48 45 64 43 34 14 10 356 352 2 355 351 354 1 6 357 351 348 343 343 343 344 342 338 337 342 343 344 334 325 317 313 304 291 286 284 298 308 313 319 335 0 15